• Processing (Info)

  • MPEC 1994-Q14 : 1994 QC

    The following Minor Planet Electronic Circular may be linked-to from your own Web pages, but must not otherwise be redistributed electronically.

    A form allowing access to any MPEC is at the bottom of this page.


    Read MPEC 1994-Q13 Read MPEC 1994-R01


    M.P.E.C. 1994-Q14                                Issued 1994 Aug. 31, 14:43 UT
    
         The Minor Planet Electronic Circulars contain information on unusual
             minor planets and routine data on comets.  They are published
       on behalf of Commission 20 of the International Astronomical Union by the
              Minor Planet Center, Smithsonian Astrophysical Observatory,
                              Cambridge, MA 02138, U.S.A.
    
              MARSDEN@CFA or WILLIAMS@CFA (.HARVARD.EDU, .SPAN or .BITNET)
    
                                        1994 QC
    
    Discovered 1994 Aug. 28 at San Marcello Pistoiese.
    
    Available observations:
         J94Q00C* C1994 08 28.89394 21 43 15.24 -02 36 04.2          17          104
         J94Q00C  C1994 08 28.89722 21 43 15.14 -02 36 14.4                      104
         J94Q00C  C1994 08 28.90208 21 43 15.07 -02 36 30.7                      104
         J94Q00C  C1994 08 28.91027 21 43 14.92 -02 36 59.0                      104
         J94Q00C  C1994 08 28.92213 21 43 14.69 -02 37 40.0                      104
         J94Q00C  C1994 08 28.92778 21 43 14.57 -02 37 58.5                      104
         J94Q00C  C1994 08 28.94050 21 43 14.27 -02 38 41.1                      104
         J94Q00C  C1994 08 28.96169 21 43 13.77 -02 39 52.4                      104
         J94Q00C  C1994 08 29.84198 21 43 04.79 -03 29 07.7                      587
         J94Q00C  C1994 08 29.84583 21 43 04.72 -03 29 18.6                      587
         J94Q00C  C1994 08 29.85500 21 43 04.61 -03 29 51.6                      587
         J94Q00C  C1994 08 29.86429 21 43 04.22 -03 30 21.9          17.4 V      595
         J94Q00C  C1994 08 29.86876 21 43 04.21 -03 30 36.0                      595
         J94Q00C  C1994 08 29.87497 21 43 04.06 -03 30 57.1                      595
         J94Q00C  C1994 08 29.93634 21 43 02.82 -03 34 21.7                      589
         J94Q00C  C1994 08 29.95462 21 43 02.48 -03 35 22.2                      589
         J94Q00C  C1994 08 29.97121 21 43 02.12 -03 36 16.7                      589
         J94Q00C  C1994 08 30.00795 21 43 01.41 -03 38 20.4                      595
         J94Q00C  C1994 08 30.01177 21 43 01.35 -03 38 31.8                      589
         J94Q00C  C1994 08 30.01795 21 43 01.27 -03 38 52.5                      595
         J94Q00C  C1994 08 31.34029 21 42 49.49 -04 51 32.3                      657
         J94Q00C  C1994 08 31.34310 21 42 49.48 -04 51 43.7                      657
         J94Q00C  C1994 08 31.34606 21 42 49.47 -04 51 51.9                      657
    
    Observer details:
    104 San Marcello Pistoiese.  Observers A. Boattini, M. Tombelli, S. Giovanardi.
        0.40-m reflector + CCD.
    587 Sormano.  Observers P. Sicoli, V. Giuliani.  0.5-m reflector + CCD.
    589 Santa Lucia Stroncone.  Observers A. Vagnozzi, E. Gregori.
        0.50-m f/2.8 Ritchey-Chretien + CCD.
    595 Farra d'Isonzo.  Observers G. Lombardi, E. Pettarin.  Measurer G. Lombardi.
        0.40-m f/4.5 reflector + CCD.
    657 Climenhaga Observatory, Victoria.  Observers D. D. Balam, J. B. Tatum.
        Measurer D. D. Balam.  0.5-m reflector + CCD.
    
    Orbital elements:
    1994 QC
    Epoch 1994 Aug. 16.0 TT = JDT 2449580.5                 Williams
    M  56.07410              (2000.0)            P               Q
    n   0.64884928     Peri.   93.33938     -0.23345641     +0.96977732
    a   1.3214178      Node   162.65593     -0.95958209     -0.21798415
    e   0.1189888      Incl.   13.76318     -0.15716333     -0.10961235
    P   1.52           H    18.0          G   0.15
    From 18 observations 1994 Aug. 28-31.
    
    Ephemeris:
    1994 QC                  a,e,i = 1.32, 0.12, 14                  q = 1.1642
    Date    TT    R. A. (2000) Decl.     Delta      r     Elong.  Phase     V
    1994 08 26    21 43.94   +00 09.6    0.260    1.265   166.3    10.9    16.3
    1994 08 31    21 42.88   -04 32.5    0.270    1.274   166.0    11.0    16.4
    1994 09 05    21 42.56   -08 53.5    0.285    1.282   162.0    14.0    16.6
    1994 09 10    21 43.16   -12 44.8    0.304    1.291   156.6    18.0    16.9
    1994 09 15    21 44.79   -16 02.1    0.326    1.300   151.0    22.0    17.2
    1994 09 20    21 47.45   -18 45.0    0.351    1.309   145.5    25.7    17.5
    1994 09 25    21 51.11   -20 55.2    0.380    1.318   140.5    29.0    17.8
    1994 09 30    21 55.68   -22 35.9    0.411    1.327   135.8    31.8    18.0
    1994 10 05    22 01.11   -23 50.1    0.444    1.336   131.5    34.1    18.3
    1994 10 10    22 07.31   -24 41.2    0.479    1.345   127.5    36.1    18.5
    1994 10 15    22 14.20   -25 12.3    0.515    1.353   123.8    37.8    18.7
    1994 10 20    22 21.66   -25 26.4    0.553    1.362   120.4    39.1    18.9
    1994 10 25    22 29.61   -25 25.8    0.592    1.370   117.2    40.2    19.1
    1994 10 30    22 37.96   -25 12.5    0.632    1.378   114.1    41.1    19.3
    1994 11 04    22 46.66   -24 48.2    0.673    1.386   111.3    41.8    19.5
    1994 11 09    22 55.66   -24 14.2    0.715    1.393   108.5    42.4    19.6
    1994 11 14    23 04.92   -23 32.1    0.757    1.401   105.9    42.8    19.8
    1994 11 19    23 14.38   -22 42.8    0.800    1.408   103.4    43.1    19.9
    1994 11 24    23 24.01   -21 47.4    0.843    1.415   101.0    43.2    20.1
    1994 11 29    23 33.78   -20 46.6    0.886    1.421    98.6    43.3    20.2
    1994 12 04    23 43.68   -19 41.1    0.930    1.428    96.3    43.3    20.3
    1994 12 09    23 53.70   -18 31.5    0.974    1.434    94.1    43.3    20.4
    1994 12 14    00 03.83   -17 18.5    1.018    1.439    91.9    43.1    20.5
    1994 12 19    00 14.06   -16 02.6    1.062    1.444    89.8    42.9    20.6
    1994 12 24    00 24.36   -14 44.3    1.105    1.449    87.7    42.7    20.7
    1994 12 29    00 34.75   -13 24.0    1.149    1.454    85.6    42.4    20.8
    1995 01 03    00 45.24   -12 02.0    1.192    1.458    83.6    42.1    20.8
    1995 01 08    00 55.83   -10 38.8    1.235    1.462    81.6    41.7    20.9
    1995 01 13    01 06.51   -09 14.7    1.277    1.465    79.6    41.3    21.0
    1995 01 18    01 17.29   -07 50.1    1.319    1.468    77.7    40.9    21.0
    1995 01 23    01 28.16   -06 25.3    1.361    1.471    75.8    40.4    21.1
    
    Gareth V. Williams                                            M.P.E.C. 1994-Q14
    

    Read MPEC 1994-Q13 Read MPEC 1994-R01


    MPEC number:

    Enter an MPEC number in one of the following forms:

    • 1997-B01 (the full form)
    • J97B01 (the packed version of the full form)
    • B01 (the abbreviated form)